This demonstration page uses our WeatherBlox Daily Observations layout. Learn more.

Left ArrowRight Arrow

36.17497, -115.13722

Hourly Observations for January 20, 2023

Temp ( °F °C ) Dew Point ( °F °C ) Humidity (%) Winds ( mph kmh ) Pressure ( in mb ) Visibility ( mi km ) Precip ( " mm )
12:53 am 00:53 Cloudy 43 6.1 24 -4.4 47 47 NW 20 31 30.08 1019 10 16 0.00 0.00
1:53 am 01:53 Clear 42 5.6 24 -4.4 48 48 NW 17 28 30.10 1019 10 16 0.00 0.00
2:53 am 02:53 Mostly Cloudy 41 5 24 -4.4 51 51 NW 14 22 30.11 1020 10 16 0.00 0.00
3:53 am 03:53 Mostly Cloudy 42 5.6 21 -6.1 43 43 NW 9 15 30.13 1020 10 16 0.00 0.00
4:53 am 04:53 Mostly Cloudy 42 5.6 19 -7.2 39 39 NW 17 28 30.15 1021 10 16 0.00 0.00
5:53 am 05:53 Partly Cloudy 42 5.6 18 -7.8 37 37 NW 21 33 30.16 1022 10 16 0.00 0.00
6:53 am 06:53 Sunny 42 5.6 17 -8.3 36 36 NW 21 33 30.19 1022 10 16 0.00 0.00
7:53 am 07:53 Sunny 43 6.1 16 -8.9 33 33 NW 20 31 30.21 1023 10 16 0.00 0.00
8:53 am 08:53 Sunny 45 7.2 17 -8.3 32 32 NW 17 28 30.24 1024 10 16 0.00 0.00
9:53 am 09:53 Sunny 47 8.3 17 -8.3 30 30 NNW 25 41 30.25 1024 10 16 0.00 0.00
10:53 am 10:53 Sunny with Light Rain 48 8.9 16 -8.9 27 27 NNW 28 44 30.25 1024 10 16 0.01 0.13
11:53 am 11:53 Sunny 49 9.4 17 -8.3 28 28 NNW 23 37 30.24 1024 10 16 0.01 0.13
12:53 pm 12:53 Sunny 51 10.6 16 -8.9 24 24 NNW 22 35 30.23 1024 10 16 0.00 0.00
1:53 pm 13:53 Sunny 51 10.6 17 -8.3 26 26 NW 21 33 30.24 1024 10 16 0.00 0.00
2:53 pm 14:53 Sunny 52 11.1 17 -8.3 25 25 NW 16 26 30.25 1024 10 16 0.00 0.00
3:53 pm 15:53 Sunny 52 11.1 17 -8.3 25 25 NW 18 30 30.27 1025 10 16 0.00 0.00
4:53 pm 16:53 Sunny 50 10 17 -8.3 27 27 NW 15 24 30.28 1026 10 16 0.00 0.00
5:53 pm 17:53 Clear 48 8.9 18 -7.8 30 30 NW 10 17 30.30 1026 10 16 0.00 0.00
6:53 pm 18:53 Clear 48 8.9 19 -7.2 31 31 NW 16 26 30.32 1027 10 16 0.00 0.00
7:53 pm 19:53 Clear 47 8.3 18 -7.8 31 31 NW 16 26 30.34 1027 10 16 0.00 0.00
8:53 pm 20:53 Clear 46 7.8 19 -7.2 34 34 NNW 10 17 30.35 1028 10 16 0.00 0.00
9:53 pm 21:53 Clear 46 7.8 19 -7.2 34 34 NNW 12 19 30.35 1028 10 16 0.00 0.00
10:53 pm 22:53 Clear 45 7.2 19 -7.2 35 35 N 13 20 30.37 1029 10 16 0.00 0.00
11:53 pm 23:53 Clear 42 5.6 20 -6.7 41 41 NNW 8 13 30.37 1029 10 16 0.00 0.00

Powered by AerisWeather